| time (UTC) | temp C | wind direction | speed KPH | gust KPH | rain 1hr cm | rain 24hr cm | rain mn cm | humidity % | barometer mb |
| 20260504042055 | 5 | 140 | 0.0 | 1.6 | 0.00 | 0.00 | 0.00 | 61 | 1013.8 |
| 20260504041551 | 5 | 140 | 0.0 | 1.6 | 0.00 | 0.00 | 0.00 | 61 | 1013.5 |
| 20260504041047 | 5 | 179 | 0.0 | 0.0 | 0.00 | 0.00 | 0.00 | 61 | 1013.8 |
| 20260504040545 | 5 | 179 | 0.0 | 1.6 | 0.00 | 0.00 | 0.00 | 61 | 1013.8 |
| 20260504040041 | 5 | 150 | 1.6 | 1.6 | 0.00 | 0.00 | 0.00 | 60 | 1013.8 |
| 20260504035538 | 6 | 186 | 1.6 | 1.6 | 0.00 | 0.00 | 0.00 | 59 | 1013.8 |
| 20260504035034 | 6 | 207 | 1.6 | 1.6 | 0.00 | 0.00 | 0.00 | 58 | 1013.8 |
| 20260504034533 | 6 | 244 | 1.6 | 1.6 | 0.00 | 0.00 | 0.00 | 57 | 1013.8 |
| 20260504034029 | 6 | 245 | 1.6 | 1.6 | 0.00 | 0.00 | 0.00 | 55 | 1013.8 |
| 20260504033528 | 6 | 158 | 1.6 | 1.6 | 0.00 | 0.00 | 0.00 | 55 | 1013.8 |
| 20260504033024 | 6 | 184 | 1.6 | 1.6 | 0.00 | 0.00 | 0.00 | 55 | 1013.8 |
| 20260504032521 | 6 | 200 | 1.6 | 3.2 | 0.00 | 0.00 | 0.00 | 55 | 1013.8 |
| 20260504032018 | 6 | 213 | 1.6 | 3.2 | 0.00 | 0.00 | 0.00 | 54 | 1013.8 |
| 20260504031515 | 7 | 169 | 0.0 | 1.6 | 0.00 | 0.00 | 0.00 | 54 | 1013.8 |
| 20260504031011 | 7 | 186 | 0.0 | 4.8 | 0.00 | 0.00 | 0.00 | 52 | 1013.8 |
| 20260504030508 | 7 | 202 | 1.6 | 3.2 | 0.00 | 0.00 | 0.00 | 53 | 1013.8 |
| 20260504030004 | 7 | 176 | 0.0 | 4.8 | 0.00 | 0.00 | 0.00 | 53 | 1013.8 |
| 20260504025501 | 7 | 266 | 6.4 | 9.7 | 0.00 | 0.00 | 0.00 | 53 | 1013.8 |
| 20260504024958 | 7 | 235 | 1.6 | 4.8 | 0.00 | 0.00 | 0.00 | 53 | 1014.3 |
| 20260504024455 | 7 | 180 | 0.0 | 1.6 | 0.00 | 0.00 | 0.00 | 54 | 1014.3 |
| 20260504023952 | 7 | 197 | 1.6 | 1.6 | 0.00 | 0.00 | 0.00 | 53 | 1013.8 |
| 20260504023449 | 7 | 195 | 1.6 | 3.2 | 0.00 | 0.00 | 0.00 | 52 | 1014.3 |
| 20260504022944 | 7 | 237 | 3.2 | 4.8 | 0.00 | 0.00 | 0.00 | 53 | 1014.3 |
| 20260504022441 | 7 | 187 | 1.6 | 3.2 | 0.00 | 0.00 | 0.00 | 53 | 1014.3 |
| 20260504021937 | 7 | 196 | 1.6 | 3.2 | 0.00 | 0.00 | 0.00 | 53 | 1014.3 |
| 20260504021435 | 7 | 180 | 0.0 | 3.2 | 0.00 | 0.00 | 0.00 | 54 | 1013.8 |
| 20260504020932 | 6 | 175 | 3.2 | 4.8 | 0.00 | 0.00 | 0.00 | 54 | 1014.3 |
| 20260504020428 | 6 | 190 | 1.6 | 3.2 | 0.00 | 0.00 | 0.00 | 58 | 1013.8 |
| 20260504015925 | 5 | 178 | 1.6 | 4.8 | 0.00 | 0.00 | 0.00 | 59 | 1013.8 |
| 20260504015421 | 5 | 173 | 0.0 | 0.0 | 0.00 | 0.00 | 0.00 | 61 | 1013.8 |
| 20260504014917 | 5 | 173 | 0.0 | 0.0 | 0.00 | 0.00 | 0.00 | 61 | 1013.8 |
| 20260504014414 | 6 | 176 | 0.0 | 1.6 | 0.00 | 0.00 | 0.00 | 61 | 1013.8 |
| 20260504013910 | 5 | 166 | 0.0 | 0.0 | 0.00 | 0.00 | 0.00 | 60 | 1013.8 |
| 20260504013409 | 6 | 178 | 0.0 | 0.0 | 0.00 | 0.00 | 0.00 | 59 | 1013.8 |
| 20260504012905 | 6 | 179 | 0.0 | 0.0 | 0.00 | 0.00 | 0.00 | 58 | 1013.8 |
| 20260504012403 | 6 | 179 | 0.0 | 1.6 | 0.00 | 0.00 | 0.00 | 58 | 1013.8 |
| 20260504011900 | 7 | 180 | 0.0 | 0.0 | 0.00 | 0.00 | 0.00 | 54 | 1013.8 |
| 20260504011357 | 7 | 167 | 0.0 | 0.0 | 0.00 | 0.00 | 0.00 | 54 | 1013.8 |
| 20260504010852 | 7 | 203 | 0.0 | 1.6 | 0.00 | 0.00 | 0.00 | 53 | 1013.5 |
| 20260504010348 | 7 | 175 | 0.0 | 1.6 | 0.00 | 0.00 | 0.00 | 53 | 1013.5 |
| 20260504005845 | 7 | 173 | 0.0 | 1.6 | 0.00 | 0.00 | 0.00 | 52 | 1013.5 |
| 20260504005342 | 7 | 32 | 1.6 | 4.8 | 0.00 | 0.00 | 0.00 | 53 | 1013.5 |
| 20260504004839 | 7 | 214 | 1.6 | 1.6 | 0.00 | 0.00 | 0.00 | 52 | 1013.8 |
| 20260504004337 | 7 | 195 | 1.6 | 1.6 | 0.00 | 0.00 | 0.00 | 52 | 1013.5 |
| 20260504003833 | 7 | 185 | 0.0 | 1.6 | 0.00 | 0.00 | 0.00 | 51 | 1013.5 |
| 20260504003330 | 8 | 183 | 1.6 | 3.2 | 0.00 | 0.00 | 0.00 | 51 | 1013.5 |
| 20260504002827 | 8 | 189 | 0.0 | 1.6 | 0.00 | 0.00 | 0.00 | 50 | 1013.5 |
| 20260504002324 | 8 | 197 | 1.6 | 1.6 | 0.00 | 0.00 | 0.00 | 49 | 1013.5 |
| 20260504001821 | 8 | 194 | 0.0 | 1.6 | 0.00 | 0.00 | 0.00 | 48 | 1013.5 |
| 20260504001318 | 9 | 175 | 0.0 | 3.2 | 0.00 | 0.00 | 0.00 | 47 | 1013.5 |
| 20260504000815 | 10 | 184 | 1.6 | 9.7 | 0.00 | 0.00 | 0.00 | 45 | 1013.5 |
| 20260504000312 | 10 | 240 | 3.2 | 6.4 | 0.00 | 0.00 | 0.00 | 46 | 1013.5 |
| 20260503235810 | 10 | 174 | 3.2 | 6.4 | 0.00 | 0.00 | 0.00 | 45 | 1013.5 |
| 20260503235307 | 10 | 224 | 1.6 | 3.2 | 0.00 | 0.00 | 0.00 | 44 | 1013.5 |
| 20260503234805 | 10 | 266 | 6.4 | 9.7 | 0.00 | 0.00 | 0.00 | 44 | 1013.5 |
| 20260503234303 | 10 | 251 | 3.2 | 3.2 | 0.00 | 0.00 | 0.00 | 45 | 1013.5 |
| 20260503233800 | 10 | 214 | 3.2 | 4.8 | 0.00 | 0.00 | 0.00 | 44 | 1013.5 |
| 20260503233255 | 10 | 221 | 4.8 | 4.8 | 0.00 | 0.00 | 0.00 | 43 | 1013.5 |
| 20260503232753 | 11 | 279 | 8.0 | 11.3 | 0.00 | 0.00 | 0.00 | 42 | 1013.5 |
| 20260503232250 | 11 | 300 | 6.4 | 11.3 | 0.00 | 0.00 | 0.00 | 41 | 1013.5 |
| 20260503231748 | 11 | 180 | 3.2 | 4.8 | 0.00 | 0.00 | 0.00 | 42 | 1013.1 |
| 20260503231245 | 11 | 248 | 6.4 | 12.9 | 0.00 | 0.00 | 0.00 | 42 | 1013.5 |
| 20260503230740 | 11 | 270 | 3.2 | 4.8 | 0.00 | 0.00 | 0.00 | 42 | 1013.5 |
| 20260503230238 | 11 | 351 | 6.4 | 12.9 | 0.00 | 0.00 | 0.00 | 39 | 1013.5 |
| 20260503225735 | 11 | 197 | 1.6 | 11.3 | 0.00 | 0.00 | 0.00 | 39 | 1013.5 |
| 20260503225235 | 11 | 332 | 9.7 | 12.9 | 0.00 | 0.00 | 0.00 | 40 | 1013.5 |
| 20260503224732 | 11 | 275 | 3.2 | 4.8 | 0.00 | 0.00 | 0.00 | 41 | 1013.5 |
| 20260503224230 | 11 | 249 | 8.0 | 14.5 | 0.00 | 0.00 | 0.00 | 42 | 1013.5 |
| 20260503223728 | 11 | 319 | 8.0 | 12.9 | 0.00 | 0.00 | 0.00 | 39 | 1013.5 |
| 20260503223225 | 12 | 284 | 4.8 | 9.7 | 0.00 | 0.00 | 0.00 | 41 | 1013.5 |
| 20260503222721 | 12 | 256 | 6.4 | 11.3 | 0.00 | 0.00 | 0.00 | 39 | 1013.1 |
| 20260503222219 | 12 | 277 | 8.0 | 16.1 | 0.00 | 0.00 | 0.00 | 39 | 1013.5 |
| 20260503221717 | 12 | 211 | 3.2 | 9.7 | 0.00 | 0.00 | 0.00 | 40 | 1013.5 |
| 20260503221215 | 12 | 28 | 3.2 | 6.4 | 0.00 | 0.00 | 0.00 | 38 | 1013.5 |
| 20260503220711 | 12 | 316 | 9.7 | 14.5 | 0.00 | 0.00 | 0.00 | 38 | 1013.1 |
| 20260503220208 | 12 | 243 | 4.8 | 9.7 | 0.00 | 0.00 | 0.00 | 40 | 1013.5 |
| 20260503215705 | 12 | 229 | 1.6 | 9.7 | 0.00 | 0.00 | 0.00 | 40 | 1013.5 |
| 20260503215202 | 12 | 281 | 16.1 | 24.1 | 0.00 | 0.00 | 0.00 | 39 | 1013.5 |
| 20260503214700 | 11 | 226 | 3.2 | 25.7 | 0.00 | 0.00 | 0.00 | 42 | 1013.5 |
| 20260503214156 | 12 | 302 | 6.4 | 11.3 | 0.00 | 0.00 | 0.00 | 41 | 1013.5 |
| 20260503213655 | 12 | 301 | 6.4 | 12.9 | 0.00 | 0.00 | 0.00 | 39 | 1013.8 |
| 20260503213151 | 12 | 282 | 3.2 | 3.2 | 0.00 | 0.00 | 0.00 | 40 | 1013.5 |
| 20260503212649 | 11 | 275 | 4.8 | 9.7 | 0.00 | 0.00 | 0.00 | 44 | 1013.8 |
| 20260503212146 | 12 | 290 | 9.7 | 27.4 | 0.00 | 0.00 | 0.00 | 39 | 1013.5 |
| 20260503211644 | 12 | 334 | 6.4 | 14.5 | 0.00 | 0.00 | 0.00 | 38 | 1013.5 |
| 20260503211139 | 12 | 301 | 4.8 | 6.4 | 0.00 | 0.00 | 0.00 | 40 | 1013.8 |
| 20260503210636 | 11 | 217 | 3.2 | 11.3 | 0.00 | 0.00 | 0.00 | 41 | 1013.5 |
| 20260503210132 | 12 | 322 | 8.0 | 12.9 | 0.00 | 0.00 | 0.00 | 39 | 1013.5 |
| 20260503205628 | 11 | 305 | 3.2 | 6.4 | 0.00 | 0.00 | 0.00 | 38 | 1013.8 |
| 20260503205125 | 12 | 325 | 6.4 | 9.7 | 0.00 | 0.00 | 0.00 | 40 | 1013.8 |
| 20260503204621 | 13 | 322 | 9.7 | 25.7 | 0.00 | 0.00 | 0.00 | 38 | 1013.8 |
| 20260503204119 | 11 | 254 | 6.4 | 9.7 | 0.00 | 0.00 | 0.00 | 43 | 1013.8 |
| 20260503203616 | 11 | 321 | 6.4 | 12.9 | 0.00 | 0.00 | 0.00 | 40 | 1013.5 |
| 20260503203113 | 12 | 326 | 3.2 | 9.7 | 0.00 | 0.00 | 0.00 | 39 | 1013.8 |
| 20260503202611 | 12 | 252 | 8.0 | 14.5 | 0.00 | 0.00 | 0.00 | 40 | 1013.8 |
| 20260503202108 | 12 | 12 | 4.8 | 11.3 | 0.00 | 0.00 | 0.00 | 38 | 1013.8 |
| 20260503201606 | 12 | 9 | 9.7 | 14.5 | 0.00 | 0.00 | 0.00 | 38 | 1013.8 |
| 20260503201103 | 12 | 288 | 8.0 | 11.3 | 0.00 | 0.00 | 0.00 | 39 | 1013.8 |
| 20260503200600 | 13 | 303 | 6.4 | 12.9 | 0.00 | 0.00 | 0.00 | 40 | 1013.8 |
| 20260503200056 | 12 | 244 | 4.8 | 16.1 | 0.00 | 0.00 | 0.00 | 40 | 1013.8 |
| 20260503195553 | 13 | 208 | 9.7 | 12.9 | 0.00 | 0.00 | 0.00 | 37 | 1014.3 |
| 20260503195050 | 13 | 332 | 14.5 | 20.9 | 0.00 | 0.00 | 0.00 | 37 | 1014.3 |
| 20260503194547 | 12 | 22 | 3.2 | 20.9 | 0.00 | 0.00 | 0.00 | 42 | 1014.3 |
| 20260503194047 | 11 | 233 | 6.4 | 9.7 | 0.00 | 0.00 | 0.00 | 43 | 1014.3 |
| 20260503193544 | 11 | 243 | 4.8 | 9.7 | 0.00 | 0.00 | 0.00 | 41 | 1014.3 |
| 20260503193039 | 11 | 40 | 6.4 | 16.1 | 0.00 | 0.00 | 0.00 | 39 | 1014.3 |
| 20260503192536 | 11 | 287 | 8.0 | 17.7 | 0.00 | 0.00 | 0.00 | 40 | 1014.3 |
| 20260503192031 | 11 | 318 | 9.7 | 22.5 | 0.00 | 0.00 | 0.00 | 40 | 1014.6 |
| 20260503191528 | 11 | 310 | 4.8 | 9.7 | 0.00 | 0.00 | 0.00 | 41 | 1014.6 |
| 20260503191025 | 11 | 255 | 12.9 | 20.9 | 0.00 | 0.00 | 0.00 | 39 | 1014.6 |
| 20260503190522 | 11 | 359 | 6.4 | 12.9 | 0.00 | 0.00 | 0.00 | 41 | 1014.9 |
| 20260503190019 | 11 | 277 | 6.4 | 11.3 | 0.00 | 0.00 | 0.00 | 41 | 1014.9 |
| 20260503185515 | 11 | 309 | 6.4 | 14.5 | 0.00 | 0.00 | 0.00 | 41 | 1014.9 |
| 20260503185015 | 11 | 275 | 3.2 | 11.3 | 0.00 | 0.00 | 0.00 | 41 | 1014.9 |
| 20260503184512 | 11 | 258 | 8.0 | 9.7 | 0.00 | 0.00 | 0.00 | 42 | 1014.9 |
| 20260503184008 | 12 | 353 | 6.4 | 11.3 | 0.00 | 0.00 | 0.00 | 40 | 1014.9 |
| 20260503183505 | 11 | 266 | 9.7 | 12.9 | 0.00 | 0.00 | 0.00 | 40 | 1014.9 |
| 20260503183002 | 11 | 17 | 9.7 | 12.9 | 0.00 | 0.00 | 0.00 | 40 | 1014.9 |
| 20260503182501 | 10 | 280 | 8.0 | 12.9 | 0.00 | 0.00 | 0.00 | 44 | 1014.9 |
| 20260503181958 | 11 | 338 | 8.0 | 24.1 | 0.00 | 0.00 | 0.00 | 39 | 1015.3 |
| 20260503181455 | 11 | 13 | 14.5 | 22.5 | 0.00 | 0.00 | 0.00 | 40 | 1015.3 |
| 20260503180950 | 12 | 273 | 4.8 | 11.3 | 0.00 | 0.00 | 0.00 | 41 | 1015.3 |
| 20260503180449 | 11 | 312 | 11.3 | 16.1 | 0.00 | 0.00 | 0.00 | 44 | 1015.3 |
| 20260503175945 | 11 | 287 | 6.4 | 11.3 | 0.00 | 0.00 | 0.00 | 43 | 1014.9 |
| 20260503175444 | 11 | 303 | 8.0 | 14.5 | 0.00 | 0.00 | 0.00 | 42 | 1015.3 |
| 20260503174939 | 11 | 325 | 11.3 | 12.9 | 0.00 | 0.00 | 0.00 | 38 | 1015.3 |
| 20260503174437 | 11 | 303 | 9.7 | 12.9 | 0.00 | 0.00 | 0.00 | 40 | 1015.3 |
| 20260503173932 | 11 | 356 | 4.8 | 6.4 | 0.00 | 0.00 | 0.00 | 40 | 1015.3 |
| 20260503173428 | 11 | 354 | 12.9 | 16.1 | 0.00 | 0.00 | 0.00 | 39 | 1015.3 |
| 20260503172925 | 10 | 224 | 6.4 | 11.3 | 0.00 | 0.00 | 0.00 | 48 | 1015.3 |
| 20260503172423 | 10 | 276 | 6.4 | 12.9 | 0.00 | 0.00 | 0.00 | 46 | 1015.6 |
| 20260503171919 | 10 | 200 | 11.3 | 20.9 | 0.00 | 0.00 | 0.00 | 42 | 1015.3 |
| 20260503171416 | 11 | 233 | 6.4 | 16.1 | 0.00 | 0.00 | 0.00 | 43 | 1015.3 |
| 20260503170913 | 10 | 356 | 1.6 | 11.3 | 0.00 | 0.00 | 0.00 | 41 | 1015.3 |
| 20260503170409 | 10 | 310 | 9.7 | 24.1 | 0.00 | 0.00 | 0.00 | 45 | 1015.6 |
| 20260503150802 | 8 | 332 | 8.0 | 16.1 | 0.00 | 0.00 | 0.00 | 48 | 1016.4 |
| 20260503150257 | 8 | 306 | 6.4 | 14.5 | 0.00 | 0.00 | 0.00 | 52 | 1016.4 |
| 20260503140222 | 7 | 334 | 14.5 | 20.9 | 0.00 | 0.00 | 0.00 | 54 | 1016.4 |
| 20260503131152 | 5 | 334 | 4.8 | 6.4 | 0.00 | 0.00 | 0.00 | 67 | 1016.4 |
| 20260503130649 | 5 | 254 | 3.2 | 4.8 | 0.00 | 0.00 | 0.00 | 67 | 1016.4 |
| 20260503130147 | 4 | 324 | 4.8 | 6.4 | 0.00 | 0.00 | 0.00 | 68 | 1016.4 |
| 20260503120112 | 2 | 316 | 3.2 | 6.4 | 0.00 | 0.00 | 0.00 | 76 | 1016.0 |
| 20260503110539 | 0 | 168 | 1.6 | 4.8 | 0.00 | 0.00 | 0.00 | 87 | 1015.6 |
| 20260503090426 | -1 | 125 | 0.0 | 1.6 | 0.00 | 0.00 | 0.00 | 93 | 1014.6 |
| 20260503081352 | -1 | 169 | 0.0 | 0.0 | 0.00 | 0.00 | 0.00 | 91 | 1014.6 |
| 20260503080849 | -1 | 170 | 0.0 | 1.6 | 0.00 | 0.00 | 0.00 | 91 | 1014.3 |
| 20260503080347 | -1 | 181 | 0.0 | 1.6 | 0.00 | 0.00 | 0.00 | 91 | 1014.6 |
| 20260503072823 | 0 | 159 | 0.0 | 0.0 | 0.00 | 0.00 | 0.00 | 88 | 1014.3 |
| 20260503072320 | 0 | 173 | 0.0 | 1.6 | 0.00 | 0.00 | 0.00 | 88 | 1014.3 |
| 20260503071816 | 0 | 163 | 0.0 | 0.0 | 0.00 | 0.00 | 0.00 | 87 | 1014.3 |
| 20260503071314 | 0 | 170 | 0.0 | 1.6 | 0.00 | 0.00 | 0.00 | 87 | 1014.3 |
| 20260503070809 | 0 | 171 | 0.0 | 0.0 | 0.00 | 0.00 | 0.00 | 86 | 1014.3 |
| 20260503070302 | 0 | 135 | 0.0 | 3.2 | 0.00 | 0.00 | 0.00 | 87 | 1014.3 |
| 20260503060221 | 0 | 42 | 1.6 | 1.6 | 0.00 | 0.00 | 0.00 | 84 | 1014.3 |
| 20260503054708 | 0 | 175 | 0.0 | 1.6 | 0.00 | 0.00 | 0.00 | 86 | 1014.3 |
| 20260503054205 | 0 | 185 | 0.0 | 3.2 | 0.00 | 0.00 | 0.00 | 86 | 1014.3 |
| 20260503053703 | 0 | 9 | 1.6 | 3.2 | 0.00 | 0.00 | 0.00 | 87 | 1014.3 |
| 20260503053201 | 0 | 189 | 0.0 | 0.0 | 0.00 | 0.00 | 0.00 | 86 | 1014.3 |
| 20260503052657 | 0 | 164 | 0.0 | 0.0 | 0.00 | 0.00 | 0.00 | 85 | 1014.3 |
| 20260503052154 | 0 | 162 | 0.0 | 1.6 | 0.00 | 0.00 | 0.00 | 85 | 1014.3 |
| 20260503051649 | 0 | 185 | 0.0 | 3.2 | 0.00 | 0.00 | 0.00 | 84 | 1014.6 |
| 20260503051147 | 0 | 166 | 0.0 | 1.6 | 0.00 | 0.00 | 0.00 | 84 | 1014.3 |
| 20260503050643 | 0 | 256 | 1.6 | 3.2 | 0.00 | 0.00 | 0.00 | 84 | 1014.6 |
| 20260503050140 | 0 | 283 | 1.6 | 3.2 | 0.00 | 0.00 | 0.00 | 84 | 1014.6 |
| 20260503045638 | 0 | 188 | 1.6 | 1.6 | 0.00 | 0.00 | 0.00 | 84 | 1014.6 |
| 20260503045135 | 0 | 239 | 1.6 | 3.2 | 0.00 | 0.00 | 0.00 | 83 | 1014.6 |
| 20260503044631 | 1 | 144 | 1.6 | 1.6 | 0.00 | 0.00 | 0.00 | 83 | 1014.6 |
| 20260503044129 | 1 | 162 | 0.0 | 4.8 | 0.00 | 0.00 | 0.00 | 83 | 1014.6 |
| 20260503043625 | 1 | 226 | 1.6 | 3.2 | 0.00 | 0.00 | 0.00 | 83 | 1014.6 |
| 20260503043122 | 1 | 275 | 0.0 | 3.2 | 0.00 | 0.00 | 0.00 | 83 | 1014.6 |
| 20260503042619 | 1 | 295 | 3.2 | 4.8 | 0.00 | 0.00 | 0.00 | 82 | 1014.6 |